Regional Weather Roundup
Issued by NWS

Home | Current Version | Previous Version | Graphics & Text | Print | Product List | Glossary On
Versions: 1 2 3 4 5 6 7 8 9 10 11 12 13 14 15 16 17 18 19 20 21 22 23 24 25 26 27 28 29 30 31 32 33 34 35 36 37 38 39 40 41 42 43 44 45 46 47 48 49 50
000
ASUS45 KCYS 260910
RWRWY

WYOMING REGIONAL WEATHER ROUNDUP
NATIONAL WEATHER SERVICE CHEYENNE WY
300 AM MDT THU MAR 26 2015

NOTE:  "FAIR" INDICATES FEW OR NO CLOUDS BELOW 12,000 FEET
WITH NO SIGNIFICANT WEATHER AND/OR OBSTRUCTIONS TO VISIBILITY.

WYZ001-261000-
YELLOWSTONE NATIONAL PARK

CITY           SKY/WX    TMP DP  RH WIND       PRES   REMARKS
LK YELLOWSTONE   N/A     25  18  74 CALM      30.34F
W YELLOWSTONE  NOT AVBL

$$
WYZ002>013-054>058-071-098>099-261000-
NORTHERN WYOMING

CITY           SKY/WX    TMP DP  RH WIND       PRES   REMARKS
JACKSON        FAIR      21  19  93 N8        30.35S WCI  12
CODY           FAIR      45  19  36 W13G25    30.19R
GREYBULL       FAIR      41  23  48 E3        30.17S
WORLAND        FAIR      31  23  72 S7        30.19R WCI  24
SHERIDAN       CLOUDY    40  31  70 CALM      30.13S
BUFFALO        CLOUDY    39  26  59 CALM      30.13S
GILLETTE       CLOUDY    38  27  64 W8        30.12S WCI  32
HULETT         CLOUDY    37  32  81 S7        30.12F WCI  32
NEWCASTLE      FAIR      32  23  69 CALM      30.16S

$$
WYZ014>020-022>026-101>103-261000-
CENTRAL WYOMING

CITY           SKY/WX    TMP DP  RH WIND       PRES   REMARKS
BIG PINEY      FAIR      19  13  77 N7        30.34R WCI  10
PINEDALE       PTSUNNY   25  18  74 NW10      30.32S WCI  15
DUBOIS         PTSUNNY   28  14  54 NW7       30.27F WCI  21
LANDER         FAIR      30  16  56 E3        30.21R
RIVERTON       FAIR      39  16  39 NW23G33   30.19S WCI  28
CASPER         FAIR      32  21  64 SW14      30.18S WCI  22
DOUGLAS        FAIR      22  20  92 NW5       30.17S WCI  16

$$
WYZ021-027>030-104>119-261000-
SOUTHERN WYOMING

CITY           SKY/WX    TMP DP  RH WIND       PRES   REMARKS
EVANSTON       FAIR      27  17  66 SW9       30.40R WCI  18
FORT BRIDGER   FAIR      32  19  58 W15       30.40F WCI  22
ROCK SPRINGS   FAIR      28  18  66 SW15      30.32F WCI  16
DIXON          FAIR      22  17  81 E3        30.37S
RAWLINS        FAIR      29  16  58 W17       30.26F WCI  17
SARATOGA       FAIR      30  18  59 W14       30.29S WCI  20
LARAMIE        FAIR      28  13  53 W14       30.19F WCI  17
CHEYENNE       FAIR      21  16  81 W10       30.17F WCI  10
TORRINGTON     FAIR      22  19  89 E7        30.16F WCI  13
PINE BLUFFS    FAIR      25  23  93 CALM      30.19F

$$


USA.gov is the U.S. government's official web portal to all federal, state and local government web resources and services.